STARLINK-2511, 48332

Orbit data source: Space-Track

STARLINK-2511, 48332 is a payload satellite owned by SpaceX/Seattle (US) in LEO that was launched on Thu, 29 Apr 2021 UTC via an FALCON 9 launch vehicle from the Air Force Eastern Test Range (AFETR). Payload-class satellites include a variety of spacecraft equipped with specific instruments for various scientific and technological missions. These include communications satellites like Starlink; space stations such as the ISS; scientific satellites like the Hubble; Earth observation satellites from companies like Planet Labs, Umbra, and HawkEye 360; GPS; miniature CubeSats for education and research; and military/defense satellites.

Loading next visibility...
Identifier
48332, 2021-036BJ
Orbit
LEO
Country
Flag of USUS
Related business
Manufacturer
SpaceX/Seattle
Mission
Operational Commercial Communications
Bus & Motor
STARLINK, Unknown motor
Mass
260 kg wet, ~248 kg dry
Launch date (UTC)
2021-04-29 (4 years ago)
Launch vehicle
FALCON 9
Launch site
Air Force Eastern Test Range (AFETR)
Object type
Payload
Rocket body
Debris
Shape & HBR
Box + 1 Pan, 10.1 m
Radar Cross Section
13.562 m², Large (>1 m²)

Expand to show TLE details & history
Last TLE update: 15 hours ago

TLE from 15 hours ago
0 STARLINK-2511
1 48332U 21036BJ  25291.23000862 -.00001218  00000-0 -62915-4 0  9993
2 48332  53.0550  21.1429 0001041  75.4492 284.6612 15.06403076246560
Epoch: 2025-10-18T05:31Z
TLE epoch observation values (Epoch: 2025-10-18T05:31:12.744Z)
Latitude
-0.00007°
Longitude
-88.62426°
Altitude
547.899 km
Speed
7.589 km/s
True Right ascension
01h 24m 34s
True Declination
0° 00' 00"
Sunlit
Object was in full shadow at epoch
Visualization orbit readout
Latitude
Unknown
Longitude
Unknown
Altitude
Unknown
Speed
Unknown
Apparent Right ascension
Unknown
Apparent Declination
Unknown
Sunlit
N/A
Visualization observer readout
Local Sidereal Time
15:37:32
Azimuth
Unknown
Elevation
Unknown
Doppler factor
Unknown
Orbital elements
Apogee altitude
548.194 km
Perigee altitude
546.752 km
Semi-major axis
6,925.61 km
Eccentricity
0.0001
Inclination
53.055°
RAAN
21.1429°
Arg. of periapsis
75.4492°
True anomaly
284.64966°
Mean anomaly
284.6612°
Eccentric anomaly
284.65543°
Mean motion
3.76579 °/min
Orbital period
95.6 mins
BSTAR
-0.000062915
Loading maneuver chart data...
Computing Atmospheric mass density...
Loading historical data...
Loading historical data...
Loading historical data...
Loading historical data...
Loading historical data...
Loading historical data...
Loading historical data...

Documentation

Showing up to 5 results
|